Location: Black Skies Observatory
(44.7549°N, 79.7179°W)
Time: 15:13:49
(UTC-05:00)

Envisat - Visible Passes

Search period start: 25 February 2021 00:00
Search period end: 07 March 2021 00:00
Orbit: 764 x 766 km, 98.1° (Epoch: 25 February)

Date Brightness Start Highest point End Pass type
(mag) Time Alt. Az. Time Alt. Az. Time Alt. Az.
25 Feb 4.7 05:24:55 10° NNE 05:29:36 36° E 05:34:14 10° SSE visible
26 Feb 5.9 04:49:10 10° NE 04:52:27 17° E 04:55:42 10° SE visible
26 Feb 3.0 06:26:52 10° N 06:31:54 63° WNW 06:36:54 10° SSW visible
27 Feb 3.6 05:50:03 10° NNE 05:55:06 62° E 06:00:07 10° S visible
27 Feb 6.8 18:49:57 10° W 18:51:05 11° W 18:52:14 10° WNW visible
28 Feb 5.1 05:13:42 10° NE 05:18:06 29° E 05:22:27 10° SSE visible
01 Mar 6.1 04:38:27 10° ENE 04:40:53 13° E 04:43:18 10° ESE visible
01 Mar 3.0 06:15:24 10° N 06:20:30 79° WNW 06:25:35 10° SSW visible
02 Mar 4.1 05:38:42 10° NNE 05:43:38 49° E 05:48:32 10° S visible
02 Mar 6.4 18:36:56 10° WSW 18:39:31 14° W 18:42:06 10° WNW visible
03 Mar 5.5 05:02:34 10° NE 05:06:34 23° E 05:10:33 10° SE visible
04 Mar 6.4 04:28:39 10° ENE 04:29:18 10° E 04:29:55 10° E visible
04 Mar 3.1 06:03:58 10° NNE 06:09:05 83° ESE 06:14:10 10° SSW visible
05 Mar 4.5 05:27:24 10° NNE 05:32:10 39° E 05:36:53 10° SSE visible
06 Mar 5.8 04:51:32 10° NE 04:55:01 18° E 04:58:30 10° SE visible
